Location: Veytaux
(46.4185°N, 6.9320°E)
Time: 08:01:00
(UTC+00:00)

IDEFIX/ARIANE 42P - Pass Details

Date: 27 May 2022
Orbit: 785 x 802 km, 98.5° (Epoch: 01 July)

Event Time Altitude Azimuth Distance (km) Brightness Sun altitude
Rises 02:49:43 0° 6° (N) 3,325 6.7 -8.6°
Reaches altitude 10° 02:52:14 10° 358° (N) 2,390 5.7 -8.3°
Maximum altitude 02:56:56 34° 295° (WNW) 1,304 3.5 -7.7°
Drops below altitude 10° 03:01:37 10° 232° (SW) 2,373 4.4 -7.1°
Enters shadow 03:01:58 - 230° (SW) 2,498 4.4 -7.0°
